When you browse on this site, cookies collect data to enhance your experience and personalize the content and advertising you see.
Visit our Privacy Policy to learn more. By continuing to use the site, you agree to this use of cookies and data.
  • In Sweden
  • List of Countries
  • For 7 days
  • Water Temperature
  • Weather Map
  • Weather Widgets
  • user-avatar
    Login

    Hourly Weather Crowborough

    Today, 21 September, Saturday

    Time Temperature Precipitation Wind Pressure Humidity
    00:00 +13°C° 0 mm 5 mps 749 mmHg 66%
    01:00 +13°C° 0 mm 5 mps 749 mmHg 67%
    02:00 +12°C° 0 mm 5 mps 748 mmHg 68%
    03:00 +12°C° 0 mm 5 mps 748 mmHg 69%
    04:00 +10°C° 0 mm 5 mps 748 mmHg 71%
    05:00 +10°C° 0 mm 5 mps 747 mmHg 73%
    06:00 +10°C° 0 mm 5 mps 747 mmHg 75%
    07:00 +12°C° 0 mm 5 mps 747 mmHg 70%
    08:00 +14°C° 0 mm 6 mps 747 mmHg 65%
    09:00 +15°C° 0 mm 6 mps 746 mmHg 59%
    10:00 +17°C° 0 mm 6 mps 746 mmHg 57%
    11:00 +19°C° 0 mm 6 mps 746 mmHg 55%
    12:00 +20°C° 0 mm 5 mps 745 mmHg 54%
    13:00 +21°C° 0 mm 5 mps 745 mmHg 54%
    14:00 +21°C° 0 mm 5 mps 744 mmHg 54%
    15:00 +22°C° 0 mm 5 mps 744 mmHg 54%
    16:00 +21°C° 0 mm 5 mps 743 mmHg 58%
    17:00 +20°C° 0 mm 4 mps 743 mmHg 63%
    18:00 +19°C° 0 mm 4 mps 742 mmHg 67%
    19:00 +19°C° 0 mm 4 mps 742 mmHg 69%
    20:00 +18°C° 0 mm 4 mps 742 mmHg 72%
    21:00 +18°C° 0 mm 4 mps 742 mmHg 74%
    22:00 +18°C° 0 mm 4 mps 742 mmHg 76%
    23:00 +18°C° 0 mm 4 mps 741 mmHg 77%

    Tomorrow, 22 September, Sunday

    Time Temperature Precipitation Wind Pressure Humidity
    00:00 +18°C° 0 mm 3 mps 741 mmHg 79%
    01:00 +18°C° 0.1 mm 3 mps 741 mmHg 79%
    02:00 +17°C° 0.1 mm 4 mps 740 mmHg 80%
    03:00 +17°C° 0.1 mm 4 mps 740 mmHg 81%
    04:00 +17°C° 0 mm 4 mps 740 mmHg 84%
    05:00 +17°C° 0 mm 4 mps 739 mmHg 87%
    06:00 +17°C° 0 mm 4 mps 739 mmHg 89%
    07:00 +17°C° 0.2 mm 5 mps 739 mmHg 87%
    08:00 +19°C° 0.2 mm 6 mps 739 mmHg 85%
    09:00 +18°C° 0.2 mm 7 mps 739 mmHg 83%
    10:00 +17°C° 0.3 mm 6 mps 739 mmHg 82%
    11:00 +16°C° 0.3 mm 5 mps 740 mmHg 82%
    12:00 +16°C° 0.3 mm 3 mps 740 mmHg 82%
    13:00 +15°C° 0.1 mm 4 mps 740 mmHg 80%
    14:00 +16°C° 0.1 mm 5 mps 740 mmHg 78%
    15:00 +17°C° 0.1 mm 6 mps 740 mmHg 76%
    16:00 +16°C° 0 mm 5 mps 740 mmHg 77%
    17:00 +16°C° 0 mm 5 mps 740 mmHg 78%
    18:00 +15°C° 0 mm 5 mps 740 mmHg 79%
    19:00 +15°C° 0 mm 5 mps 740 mmHg 82%
    20:00 +14°C° 0 mm 5 mps 741 mmHg 85%
    21:00 +14°C° 0 mm 6 mps 741 mmHg 88%
    22:00 +13°C° 0.1 mm 6 mps 741 mmHg 89%
    23:00 +13°C° 0.1 mm 6 mps 742 mmHg 89%

    Day after tomorrow, 23 September, Monday

    Time Temperature Precipitation Wind Pressure Humidity
    00:00 +12°C° 0.1 mm 5 mps 742 mmHg 90%
    01:00 +12°C° 0 mm 5 mps 742 mmHg 88%
    02:00 +10°C° 0 mm 5 mps 743 mmHg 87%
    03:00 +11°C° 0 mm 4 mps 743 mmHg 86%
    04:00 +11°C° 0 mm 4 mps 743 mmHg 87%
    05:00 +11°C° 0 mm 4 mps 744 mmHg 89%
    06:00 +11°C° 0 mm 4 mps 744 mmHg 90%
    07:00 +12°C° 0.2 mm 5 mps 744 mmHg 86%
    08:00 +14°C° 0.2 mm 6 mps 744 mmHg 82%
    09:00 +15°C° 0.2 mm 7 mps 745 mmHg 78%
    10:00 +15°C° 0.2 mm 7 mps 744 mmHg 76%
    11:00 +16°C° 0.2 mm 8 mps 744 mmHg 75%
    12:00 +16°C° 0.2 mm 8 mps 744 mmHg 73%
    13:00 +16°C° 0.2 mm 7 mps 744 mmHg 73%
    14:00 +16°C° 0.2 mm 7 mps 743 mmHg 74%
    15:00 +16°C° 0.2 mm 6 mps 743 mmHg 74%
    16:00 +16°C° 0.2 mm 7 mps 743 mmHg 77%
    17:00 +15°C° 0.2 mm 7 mps 742 mmHg 80%
    18:00 +15°C° 0.2 mm 8 mps 742 mmHg 82%
    19:00 +15°C° 1.4 mm 8 mps 742 mmHg 86%
    20:00 +15°C° 1.4 mm 8 mps 742 mmHg 89%
    21:00 +15°C° 1.4 mm 9 mps 742 mmHg 93%
    22:00 +15°C° 0.4 mm 9 mps 741 mmHg 92%
    23:00 +15°C° 0.4 mm 9 mps 741 mmHg 92%

    24 September, Tuesday

    Time Temperature Precipitation Wind Pressure Humidity
    00:00 +16°C° 0.4 mm 9 mps 741 mmHg 91%
    01:00 +16°C° 0.3 mm 8 mps 740 mmHg 91%
    02:00 +16°C° 0.3 mm 8 mps 740 mmHg 92%
    03:00 +16°C° 0.3 mm 7 mps 740 mmHg 93%
    04:00 +16°C° 0.4 mm 7 mps 739 mmHg 93%
    05:00 +16°C° 0.4 mm 7 mps 739 mmHg 93%
    06:00 +16°C° 0.4 mm 7 mps 738 mmHg 93%
    07:00 +15°C° 5.9 mm 7 mps 738 mmHg 93%
    08:00 +15°C° 5.9 mm 8 mps 738 mmHg 94%
    09:00 +15°C° 5.9 mm 8 mps 738 mmHg 94%
    10:00 +16°C° 0.7 mm 8 mps 738 mmHg 86%
    11:00 +17°C° 0.7 mm 9 mps 738 mmHg 79%
    12:00 +18°C° 0.7 mm 9 mps 738 mmHg 71%
    13:00 +17°C° 0 mm 9 mps 738 mmHg 70%
    14:00 +17°C° 0 mm 9 mps 738 mmHg 68%
    15:00 +17°C° 0 mm 10 mps 738 mmHg 67%
    16:00 +16°C° 0 mm 9 mps 737 mmHg 69%
    17:00 +15°C° 0 mm 8 mps 737 mmHg 72%
    18:00 +15°C° 0 mm 8 mps 737 mmHg 74%
    19:00 +15°C° 0.2 mm 8 mps 737 mmHg 77%
    20:00 +15°C° 0.2 mm 9 mps 737 mmHg 80%
    21:00 +15°C° 0.2 mm 9 mps 737 mmHg 83%
    22:00 +15°C° 0.3 mm 9 mps 737 mmHg 83%
    23:00 +13°C° 0.3 mm 9 mps 737 mmHg 83%

    25 September, Wednesday

    Time Temperature Precipitation Wind Pressure Humidity
    00:00 +13°C° 0.3 mm 9 mps 736 mmHg 83%
    01:00 +13°C° 0.3 mm 9 mps 736 mmHg 84%
    02:00 +13°C° 0.3 mm 9 mps 736 mmHg 84%
    03:00 +12°C° 0.3 mm 9 mps 736 mmHg 84%
    04:00 +12°C° 0.3 mm 9 mps 736 mmHg 84%
    05:00 +12°C° 0.3 mm 8 mps 736 mmHg 84%
    06:00 +12°C° 0.3 mm 7 mps 736 mmHg 85%
    07:00 +13°C° 0.2 mm 8 mps 737 mmHg 82%
    08:00 +13°C° 0.2 mm 9 mps 737 mmHg 79%
    09:00 +15°C° 0.2 mm 9 mps 737 mmHg 76%
    10:00 +15°C° 0.3 mm 9 mps 738 mmHg 73%
    11:00 +16°C° 0.3 mm 9 mps 738 mmHg 71%
    12:00 +16°C° 0.3 mm 9 mps 738 mmHg 68%
    13:00 +16°C° 0.2 mm 9 mps 738 mmHg 69%
    14:00 +16°C° 0.2 mm 9 mps 738 mmHg 69%
    15:00 +16°C° 0.2 mm 10 mps 738 mmHg 70%
    16:00 +15°C° 0.9 mm 9 mps 738 mmHg 77%
    17:00 +13°C° 0.9 mm 8 mps 738 mmHg 85%
    18:00 +13°C° 0.9 mm 8 mps 738 mmHg 92%
    19:00 +13°C° 2.9 mm 8 mps 738 mmHg 93%
    20:00 +13°C° 2.9 mm 9 mps 737 mmHg 93%
    21:00 +15°C° 2.9 mm 9 mps 737 mmHg 93%
    22:00 +15°C° 1.1 mm 9 mps 737 mmHg 93%
    23:00 +15°C° 1.1 mm 8 mps 737 mmHg 93%

    26 September, Thursday

    Time Temperature Precipitation Wind Pressure Humidity
    00:00 +15°C° 1.1 mm 8 mps 736 mmHg 92%
    01:00 +15°C° 0.5 mm 8 mps 736 mmHg 93%
    02:00 +15°C° 0.5 mm 8 mps 736 mmHg 93%
    03:00 +15°C° 0.5 mm 8 mps 735 mmHg 93%
    04:00 +16°C° 1.3 mm 8 mps 735 mmHg 93%
    05:00 +16°C° 1.3 mm 8 mps 735 mmHg 93%
    06:00 +16°C° 1.3 mm 9 mps 735 mmHg 92%
    07:00 +16°C° 0.8 mm 8 mps 735 mmHg 92%
    08:00 +16°C° 0.8 mm 8 mps 735 mmHg 92%
    09:00 +16°C° 0.8 mm 8 mps 736 mmHg 92%
    10:00 +17°C° 0.9 mm 9 mps 736 mmHg 86%
    11:00 +17°C° 0.9 mm 10 mps 736 mmHg 81%
    12:00 +18°C° 0.9 mm 12 mps 736 mmHg 76%
    13:00 +17°C° 0 mm 11 mps 736 mmHg 72%
    14:00 +17°C° 0 mm 11 mps 736 mmHg 68%
    15:00 +16°C° 0 mm 11 mps 736 mmHg 64%
    16:00 +14°C° 0 mm 10 mps 736 mmHg 67%
    17:00 +13°C° 0 mm 9 mps 736 mmHg 70%
    18:00 +13°C° 0 mm 8 mps 737 mmHg 72%
    19:00 +12°C° 0.1 mm 8 mps 737 mmHg 73%
    20:00 +12°C° 0.1 mm 8 mps 737 mmHg 74%
    21:00 +12°C° 0.1 mm 8 mps 737 mmHg 75%
    22:00 +12°C° 0.2 mm 8 mps 737 mmHg 77%
    23:00 +12°C° 0.2 mm 8 mps 737 mmHg 78%
    Show more